Nederland, TX

11:12 AM CST on December 06, 2016 (GMT -0600)
Southeast Texas Regional

Weather History for KBPT - December, 2013

Change the Weather History Date:

Thursday, December 5, 2013

  Actual Average Record
Temperature  
Mean Temperature 64 °F 56 °F  
Max Temperature 80 °F 66 °F 85 °F (1916)
Min Temperature 48 °F 47 °F 25 °F (1905)
Degree Days  
Heating Degree Days 1 10  
Month to date heating degree days 10 47  
Since 1 July heating degree days 252 242  
Cooling Degree Days 0 1  
Month to date cooling degree days 17 5  
Year to date cooling degree days 3012 2860  
Growing Degree Days 14 (Base 50)    
Moisture  
Dew Point 65 °F    
Average Humidity 87    
Maximum Humidity 100    
Minimum Humidity 74    
Precipitation  
Precipitation T in 0.16 in 2.98 in (1971)
Month to date precipitation T 0.79  
Year to date precipitation 54.83 55.97  
Snow  
Snow 0.00 in 0.00 in 0.00 in ()
Month to date snowfall 0.0 0.0  
Since 1 July snowfall 0.0 0.0  
Snow Depth 0.00 in    
Sea Level Pressure  
Sea Level Pressure 29.90 in    
Wind  
Wind Speed 12 mph (South)    
Max Wind Speed 20 mph    
Max Gust Speed 24 mph    
Visibility 6 miles    
Events      
T = Trace of Precipitation, MM = Missing Value Source: NWS Daily Summary

Daily Weather History Graph

Daily Weather History Graph

Search for Another Location

Airport or City:

Trip Planner

Search our weather history database for the weather conditions in past years. The results will help you decide how hot, cold, wet, or windy it might be!

Date:

Astronomy

Dec. 05, 2013 Rise Set
Actual Time 6:57 AM CST 5:16 PM CST
Civil Twilight 6:31 AM CST 5:42 PM CST
Nautical Twilight 6:01 AM CST 6:11 PM CST
Astronomical Twilight 5:32 AM CST 6:40 PM CST
Moon 9:23 AM CST (12/5) 8:30 PM CST (12/5)
Length of Visible Light 11h 10m
Length of Day
10h 18m
Waxing Crescent, 11% of the Moon is Illuminated
Dec 5
Waxing Crescent
Dec 9
First Quarter
Dec 17
Full
Dec 25
Last Quarter
Jan 1
New

Hourly Weather History & Observations

Time (CST) Temp. Heat Index Dew Point Humidity Pressure Visibility Wind Dir Wind Speed Gust Speed Precip Events Conditions
12:53 AM 73.0 °F - 71.1 °F 93% 29.85 in 5.0 mi South 9.2 mph - N/A   Overcast
1:53 AM 73.0 °F - 71.1 °F 93% 29.84 in 5.0 mi South 11.5 mph - N/A   Overcast
2:28 AM 73.4 °F - 71.6 °F 94% 29.83 in 2.5 mi South 12.7 mph - N/A   Overcast
2:53 AM 73.0 °F - 71.1 °F 93% 29.84 in 2.0 mi South 11.5 mph - N/A   Overcast
3:10 AM 73.4 °F - 71.6 °F 94% 29.84 in 4.0 mi South 11.5 mph - N/A   Overcast
3:53 AM 73.0 °F - 71.1 °F 93% 29.85 in 6.0 mi South 10.4 mph - N/A   Overcast
4:53 AM 73.0 °F - 71.1 °F 93% 29.85 in 5.0 mi South 10.4 mph - N/A   Overcast
5:53 AM 72.0 °F - 71.1 °F 97% 29.86 in 6.0 mi South 12.7 mph - N/A   Overcast
6:53 AM 72.0 °F - 71.1 °F 97% 29.89 in 6.0 mi South 9.2 mph - N/A   Overcast
7:53 AM 73.0 °F - 71.1 °F 93% 29.92 in 6.0 mi South 9.2 mph - N/A   Overcast
8:53 AM 73.0 °F - 71.1 °F 93% 29.93 in 7.0 mi South 11.5 mph - N/A   Overcast
9:53 AM 73.9 °F - 71.1 °F 91% 29.94 in 6.0 mi SSE 12.7 mph 18.4 mph N/A   Overcast
10:53 AM 77.0 °F - 72.0 °F 84% 29.93 in 6.0 mi South 11.5 mph - N/A   Overcast
10:57 AM 77.0 °F - 71.6 °F 83% 29.93 in 6.0 mi South 13.8 mph - N/A   Mostly Cloudy
11:39 AM 78.8 °F - 71.6 °F 78% 29.91 in 6.0 mi South 16.1 mph - N/A   Mostly Cloudy
11:49 AM 78.8 °F - 71.6 °F 78% 29.91 in 6.0 mi SSE 16.1 mph - N/A   Overcast
11:53 AM 80.1 °F 83.8 °F 72.0 °F 76% 29.91 in 6.0 mi South 13.8 mph 23.0 mph N/A   Overcast
11:55 AM 80.6 °F 84.6 °F 71.6 °F 74% 29.91 in 10.0 mi South 16.1 mph 23.0 mph N/A   Mostly Cloudy
12:02 PM 78.8 °F - 71.6 °F 78% 29.91 in 10.0 mi South 16.1 mph - N/A   Mostly Cloudy
12:53 PM 77.0 °F - 72.0 °F 84% 29.89 in 10.0 mi South 15.0 mph - N/A   Mostly Cloudy
1:53 PM 75.9 °F - 71.1 °F 85% 29.87 in 10.0 mi South 13.8 mph - N/A   Overcast
2:00 PM 75.2 °F - 71.6 °F 89% 29.86 in 10.0 mi SSE 15.0 mph 20.7 mph N/A   Overcast
2:16 PM 77.0 °F - 71.6 °F 83% 29.86 in 10.0 mi South 11.5 mph - N/A   Mostly Cloudy
2:48 PM 77.0 °F - 71.6 °F 83% 29.86 in 10.0 mi SSE 9.2 mph 23.0 mph N/A   Mostly Cloudy
2:53 PM 77.0 °F - 72.0 °F 84% 29.86 in 10.0 mi SSE 15.0 mph 20.7 mph N/A   Overcast
3:03 PM 75.2 °F - 71.6 °F 89% 29.85 in 10.0 mi South 15.0 mph - N/A   Mostly Cloudy
3:13 PM 75.2 °F - 71.6 °F 89% 29.85 in 10.0 mi SSE 15.0 mph - N/A   Overcast
3:53 PM 75.9 °F - 71.1 °F 85% 29.85 in 10.0 mi NW 16.1 mph 21.9 mph N/A   Overcast
4:31 PM 62.6 °F - 57.2 °F 82% 29.87 in 5.0 mi NW 17.3 mph - N/A   Haze
4:53 PM 61.0 °F - 55.9 °F 83% 29.88 in 5.0 mi NNW 15.0 mph - N/A   Haze
5:19 PM 57.2 °F - 51.8 °F 82% 29.91 in 6.0 mi NNW 15.0 mph 24.2 mph N/A   Haze
5:53 PM 55.9 °F - 51.1 °F 84% 29.91 in 6.0 mi NNW 12.7 mph - N/A   Haze
6:53 PM 54.0 °F - 51.1 °F 90% 29.93 in 5.0 mi North 10.4 mph - 0.00 in   Overcast
7:53 PM 52.0 °F - 48.9 °F 89% 29.95 in 6.0 mi North 12.7 mph - N/A   Overcast
8:53 PM 50.0 °F - 48.0 °F 93% 29.96 in 4.0 mi NNW 10.4 mph - N/A   Overcast
9:20 PM 50.0 °F - 48.2 °F 94% 29.97 in 2.5 mi NNW 15.0 mph - N/A   Overcast
9:34 PM 50.0 °F - 46.4 °F 87% 29.97 in 3.0 mi NNW 15.0 mph 21.9 mph N/A   Overcast
9:53 PM 48.9 °F - 46.9 °F 93% 29.97 in 4.0 mi North 13.8 mph - 0.00 in   Overcast
10:53 PM 48.0 °F - 46.9 °F 96% 29.98 in 4.0 mi North 11.5 mph - 0.00 in   Overcast
11:53 PM 48.0 °F - 46.0 °F 93% 29.98 in 4.0 mi North 12.7 mph 19.6 mph 0.00 in   Overcast